Location: Castillon
(43.1358°N, 0.8654°E)
Time: 19:55:11
(UTC+00:00)

CZ-4 R/B - Pass Details

Date: 24 January 2021
Orbit: 530 x 599 km, 97.7° (Epoch: 28 February)

Event Time Altitude Azimuth Distance (km) Brightness Sun altitude
Rises 19:26:46 0° 200° (SSW) 2,788 5.2 -26.9°
Reaches altitude 10° 19:29:22 10° 216° (SW) 1,882 4.5 -27.4°
Maximum altitude 19:32:28 21° 266° (W) 1,316 4.0 -28.0°
Drops below altitude 10° 19:35:32 10° 316° (NW) 1,863 4.5 -28.5°
Sets 19:38:06 0° 333° (NNW) 2,750 5.2 -29.0°
